DC1NF-7 Weather Reports


Display with metric or nautical units.
time (UTC)temp
F
wind
direction
speed
MPH
gust
MPH
rain 1hr
in
rain 24hr
in
rain mn
in
humidity
%
barometer
mb
20260905010031 64 244 2.0 4.0 0.00 0.00 0.00 73 1014.1
20260905005026 64 245 1.0 2.0 0.00 0.00 0.00 74 1013.8
20260905004022 64 225 1.0 4.0 0.00 0.00 0.00 73 1013.9
20260905003019 64 228 1.0 2.0 0.00 0.00 0.00 72 1013.7
20260905002017 64 228 1.0 2.0 0.00 0.00 0.00 71 1013.5
20260905001113 64 216 2.0 4.0 0.00 0.00 0.00 71 1013.8
20260905000110 65 219 2.0 4.0 0.00 0.00 0.00 71 1013.4
20260904235107 65 211 1.0 2.0 0.00 0.00 0.00 70 1013.3
20260904234103 65 198 1.0 2.0 0.00 0.00 0.00 71 1013.2
20260904233101 66 222 3.0 6.0 0.00 0.00 0.00 68 1013.2
20260904232057 66 229 2.0 6.0 0.00 0.00 0.00 64 1012.9
20260904231051 67 240 2.0 4.0 0.00 0.00 0.00 63 1012.8
20260904230048 67 254 4.0 8.0 0.00 0.00 0.00 61 1013.1
20260904225045 68 211 4.0 11.0 0.00 0.00 0.00 60 1013.1
20260904224043 68 188 6.0 17.0 0.00 0.00 0.00 59 1013.0
20260904223039 69 197 7.0 20.0 0.00 0.00 0.00 58 1013.1
20260904222033 70 178 4.0 9.0 0.00 0.00 0.00 60 1012.6
20260904221029 70 166 7.0 20.0 0.00 0.00 0.00 63 1012.3
20260904220026 72 185 8.0 21.0 0.00 0.00 0.00 67 1011.7
20260904215021 77 231 7.0 14.0 0.00 0.00 0.00 58 1011.3
20260904214016 78 226 8.0 16.0 0.00 0.00 0.00 56 1010.5
20260904213115 78 224 7.0 16.0 0.00 0.00 0.00 56 1010.4
20260904212112 78 248 6.0 14.0 0.00 0.00 0.00 55 1010.2
20260904211110 78 257 6.0 13.0 0.00 0.00 0.00 55 1010.1
20260904210104 77 238 2.0 6.0 0.00 0.00 0.00 56 1010.0
20260904205100 77 243 2.0 4.0 0.00 0.00 0.00 56 1009.9
20260904204054 77 209 2.0 4.0 0.00 0.00 0.00 55 1009.8
20260904203052 77 244 1.0 4.0 0.00 0.00 0.00 55 1009.8
20260904202050 77 233 1.0 4.0 0.00 0.00 0.00 55 1009.7
20260904201045 77 222 2.0 4.0 0.00 0.00 0.00 54 1009.5
20260904200042 77 232 1.0 2.0 0.00 0.00 0.00 55 1009.6
20260904195039 78 222 1.0 4.0 0.00 0.00 0.00 54 1009.6
20260904194036 78 245 1.0 2.0 0.00 0.00 0.00 53 1009.5
20260904193033 79 230 2.0 7.0 0.00 0.00 0.00 52 1009.5
20260904192028 79 246 1.0 4.0 0.00 0.00 0.00 52 1009.3
20260904191024 79 251 2.0 4.0 0.00 0.00 0.00 51 1009.3
20260904190021 80 239 2.0 4.0 0.00 0.00 0.00 51 1009.3
20260904185016 80 217 2.0 4.0 0.00 0.00 0.00 51 1009.2
20260904184114 80 230 2.0 4.0 0.00 0.00 0.00 50 1009.1
20260904183110 81 231 3.0 6.0 0.00 0.00 0.00 50 1009.0
20260904182105 81 238 4.0 7.0 0.00 0.00 0.00 48 1008.8
20260904181101 82 218 3.0 8.0 0.00 0.00 0.00 48 1008.8
20260904180058 82 236 5.0 11.0 0.00 0.00 0.00 47 1008.7
20260904175052 82 242 5.0 9.0 0.00 0.00 0.00 47 1008.6
20260904174048 83 244 5.0 11.0 0.00 0.00 0.00 47 1008.5
20260904173045 83 237 5.0 9.0 0.00 0.00 0.00 46 1008.7
20260904172042 83 244 5.0 11.0 0.00 0.00 0.00 46 1008.5
20260904171039 83 240 4.0 8.0 0.00 0.00 0.00 46 1008.6
20260904170036 83 234 6.0 11.0 0.00 0.00 0.00 45 1008.7
20260904165032 83 250 7.0 15.0 0.00 0.00 0.00 45 1008.6
20260904164026 84 214 7.0 14.0 0.00 0.00 0.00 45 1008.7
20260904163023 84 210 10.0 17.0 0.00 0.00 0.00 46 1008.7
20260904162020 84 262 6.0 13.0 0.00 0.00 0.00 45 1008.7
20260904161017 84 247 6.0 11.0 0.00 0.00 0.00 46 1008.8
20260904160115 85 230 7.0 14.0 0.00 0.00 0.00 45 1008.8
20260904155111 85 257 9.0 16.0 0.00 0.00 0.00 45 1008.8
20260904154111 85 240 11.0 22.0 0.00 0.00 0.00 44 1008.7
20260904153103 85 206 8.0 14.0 0.00 0.00 0.00 44 1008.7
20260904152101 85 244 9.0 18.0 0.00 0.00 0.00 44 1008.8
20260904151055 86 227 8.0 16.0 0.00 0.00 0.00 44 1008.6
20260904150052 86 236 10.0 21.0 0.00 0.00 0.00 44 1008.8
20260904145049 85 225 8.0 15.0 0.00 0.00 0.00 44 1009.0
20260904144046 87 217 8.0 16.0 0.00 0.00 0.00 42 1009.0
20260904143041 87 224 10.0 16.0 0.00 0.00 0.00 42 1009.1
20260904142037 85 204 9.0 20.0 0.00 0.00 0.00 43 1009.0
20260904141033 86 209 8.0 17.0 0.00 0.00 0.00 44 1009.2
20260904140028 86 257 9.0 22.0 0.00 0.00 0.00 44 1009.4
20260904135025 85 256 10.0 18.0 0.00 0.00 0.00 44 1009.4
20260904134020 86 238 13.0 24.0 0.00 0.00 0.00 43 1009.6
20260904133017 86 216 9.0 21.0 0.00 0.00 0.00 44 1009.6
20260904132116 85 201 7.0 16.0 0.00 0.00 0.00 44 1009.7
20260904131111 86 236 8.0 15.0 0.00 0.00 0.00 45 1010.0
20260904130107 84 255 8.0 16.0 0.00 0.00 0.00 46 1010.1
20260904125105 84 229 9.0 17.0 0.00 0.00 0.00 45 1010.3
20260904124059 85 224 9.0 15.0 0.00 0.00 0.00 46 1010.6
20260904123057 84 227 9.0 16.0 0.00 0.00 0.00 47 1010.7
20260904122054 83 231 9.0 17.0 0.00 0.00 0.00 47 1011.0
20260904121049 84 212 11.0 20.0 0.00 0.00 0.00 47 1011.1
20260904120048 83 242 10.0 18.0 0.00 0.00 0.00 48 1011.2
20260904115045 83 205 9.0 18.0 0.00 0.00 0.00 49 1011.2
20260904114040 83 225 10.0 21.0 0.00 0.00 0.00 49 1011.3
20260904113036 83 192 10.0 17.0 0.00 0.00 0.00 49 1011.3
20260904112032 83 210 10.0 21.0 0.00 0.00 0.00 49 1011.5
20260904111027 82 246 10.0 18.0 0.00 0.00 0.00 49 1011.7
20260904110025 82 248 10.0 21.0 0.00 0.00 0.00 50 1011.7
20260904105021 80 232 7.0 13.0 0.00 0.00 0.00 51 1011.8
20260904104018 80 211 8.0 15.0 0.00 0.00 0.00 52 1011.9
20260904103114 81 218 7.0 18.0 0.00 0.00 0.00 51 1012.0
20260904102110 81 208 8.0 16.0 0.00 0.00 0.00 52 1012.1
20260904101107 79 226 8.0 16.0 0.00 0.00 0.00 54 1012.3
20260904095057 78 207 5.0 11.0 0.00 0.00 0.00 57 1012.6
20260904094053 77 175 6.0 11.0 0.00 0.00 0.00 59 1012.9
20260904093049 78 248 7.0 13.0 0.00 0.00 0.00 59 1013.1
20260904092047 77 200 7.0 11.0 0.00 0.00 0.00 61 1013.2
20260904091043 76 200 6.0 13.0 0.00 0.00 0.00 62 1013.4
20260904090039 74 198 5.0 11.0 0.00 0.00 0.00 65 1013.6
20260904085035 73 222 5.0 13.0 0.00 0.00 0.00 65 1013.7
20260904084101 73 180 4.0 11.0 0.00 0.00 0.00 67 1013.9
20260904083057 72 168 6.0 9.0 0.00 0.00 0.00 68 1014.0
20260904082054 72 195 4.0 9.0 0.00 0.00 0.00 68 1014.2
20260904081051 71 199 4.0 8.0 0.00 0.00 0.00 69 1014.2
20260904080048 71 179 2.0 6.0 0.00 0.00 0.00 69 1014.3
20260904075045 71 212 3.0 6.0 0.00 0.00 0.00 69 1014.3
20260904074042 71 214 2.0 4.0 0.00 0.00 0.00 70 1014.5
20260904073038 70 211 2.0 4.0 0.00 0.00 0.00 70 1014.5
20260904072033 70 188 4.0 8.0 0.00 0.00 0.00 71 1014.4
20260904071029 69 184 3.0 4.0 0.00 0.00 0.00 72 1014.5
20260904070026 69 200 2.0 6.0 0.00 0.00 0.00 72 1014.6
20260904065023 69 187 1.0 4.0 0.00 0.00 0.00 72 1014.6
20260904064020 69 212 2.0 4.0 0.00 0.00 0.00 73 1014.6
20260904063015 68 196 2.0 4.0 0.00 0.00 0.00 74 1014.5
20260904062112 68 235 2.0 4.0 0.00 0.00 0.00 74 1014.7
20260904061108 67 216 1.0 4.0 0.00 0.00 0.00 74 1014.7
20260904060103 67 216 1.0 4.0 0.00 0.00 0.00 75 1014.7
20260904055059 66 0.0 2.0 0.00 0.00 0.00 76 1014.7
20260904054055 66 0.0 0.0 0.00 0.00 0.00 77 1014.6
20260904053052 65 230 1.0 2.0 0.00 0.00 0.00 77 1014.9
20260904052049 65 228 1.0 2.0 0.00 0.00 0.00 77 1014.8
20260904051045 64 214 2.0 4.0 0.00 0.00 0.00 77 1014.7
20260904050042 65 228 2.0 4.0 0.00 0.00 0.00 77 1014.8
20260904045038 64 210 2.0 4.0 0.00 0.00 0.00 77 1014.7
20260904044033 63 234 2.0 4.0 0.00 0.00 0.00 78 1014.6
20260904043030 63 214 2.0 4.0 0.00 0.00 0.00 79 1014.6
20260904042027 63 270 0.0 2.0 0.00 0.00 0.00 79 1014.7
20260904041024 63 0.0 2.0 0.00 0.00 0.00 79 1014.8
20260904040020 63 201 0.0 2.0 0.00 0.00 0.00 79 1014.9
20260904035018 63 203 0.0 2.0 0.00 0.00 0.00 78 1015.0
20260904034115 64 256 1.0 2.0 0.00 0.00 0.00 77 1015.1
20260904033110 63 223 2.0 4.0 0.00 0.00 0.00 78 1015.1
20260904032106 63 232 1.0 4.0 0.00 0.00 0.00 79 1015.0
20260904031105 63 0.0 0.0 0.00 0.00 0.00 79 1015.2
20260904030059 62 0.0 0.0 0.00 0.00 0.00 81 1015.4
20260904025056 62 0.0 0.0 0.00 0.00 0.00 82 1015.4
20260904024053 61 0.0 0.0 0.00 0.00 0.00 82 1015.4
20260904023048 61 0.0 0.0 0.00 0.00 0.00 82 1015.5
20260904022044 62 0.0 0.0 0.00 0.00 0.00 81 1015.5
20260904021040 61 0.0 2.0 0.00 0.00 0.00 82 1015.6
20260904020036 62 180 0.0 2.0 0.00 0.00 0.00 82 1015.6
20260904015032 61 0.0 0.0 0.00 0.00 0.00 83 1015.6
20260904014027 61 180 0.0 2.0 0.00 0.00 0.00 83 1015.7
20260904013024 61 0.0 0.0 0.00 0.00 0.00 82 1015.7
20260904012023 61 0.0 0.0 0.00 0.00 0.00 82 1015.6
20260904011018 61 0.0 0.0 0.00 0.00 0.00 82 1015.6